SCP
4 5 5 4 3 3 3 3 3 4 4 4 4 3 3 3 3 2 2 2 2 2 2 2 2 2 1 1 1 2 2 2 2 2 2 1 1 1 1 1 1 1 1
4 5 5 4 3 3 3 4 4 4 5 5 5 4 3 3 3 2 2 2 2 2 2 2 2 2 2 2 2 2 2 3 2 2 2 1 1 1 1 1 1 1 1
4 5 5 4 3 3 4 4 4 4 5 5 5 4 3 3 2 2 2 3 3 3 2 2 2 3 2 2 2 2 2 3 3 3 2 2 2 2 1 1 1 1 1
4 4 4 3 3 3 3 4 4 4 5 5 5 4 3 3 2 2 3 4 3 2 2 2 2 2 2 2 1 1 1 2 3 3 3 2 2 1 1 1 1 1 1
3 3 3 3 3 3 4 4 5 5 6 6 6 5 5 4 3 4 4 3 2 2 2 2 2 2 2 1 1 1 1 2 2 3 3 2 2 1 1 1 1 1 1
2 2 2 3 3 4 5 6 6 7 8 8 7 7 6 5 4 4 3 2 2 2 2 2 2 1 1 1 1 1 1 1 2 3 3 3 2 2 1 1 1 1 1
2 2 2 3 4 6 6 6 7 7 8 8 7 7 6 4 4 3 3 2 2 2 2 2 1 1 1 1 1 1 1 1 1 2 3 3 2 2 1 1 1 1 1
2 2 3 4 5 6 5 5 5 5 5 5 5 5 4 4 4 3 3 2 2 2 1 1 1 1 2 2 2 1 1 1 1 1 2 2 2 2 1 1 1 1 1
2 3 4 4 4 4 3 3 3 3 3 3 3 3 4 4 3 3 2 2 2 1 1 1 1 1 2 2 2 1 1 1 1 1 1 1 2 1 1 1 1 1 1
3 3 4 4 3 3 3 3 2 2 3 3 3 3 3 3 3 2 2 2 1 1 1 1 1 1 1 2 1 1 1 1 1 1 1 1 1 1 1 1 1 1 1
3 4 4 3 3 3 3 3 2 2 2 3 3 3 3 3 3 3 2 2 2 1 2 2 1 1 1 1 1 1 0 0 0 0 0 0 1 1 1 1 0 0 0
3 4 4 3 2 2 2 3 3 2 2 2 2 2 2 3 3 2 2 2 2 2 2 1 1 1 1 1 1 0 0 0 0 0 0 0 0 0 1 0 0 0 0
3 3 3 3 2 2 2 3 3 3 3 3 2 2 2 2 2 2 2 2 2 1 1 1 1 0 0 0 0 0 0 0 0 0 0 0 0 0 0 0 0 0 0
2 2 2 2 2 2 2 3 3 3 3 3 3 2 2 1 1 1 1 1 1 1 1 0 0 0 0 0 0 0 0 0 0 0 0 0 0 0 0 0 0 0 0
1 1 2 2 2 2 2 3 3 2 3 3 2 2 1 1 1 1 1 1 1 1 0 0 0 0 0 0 0 0 0 0 0 0 0 0 0 0 0 0 0 0 0
1 1 2 2 2 2 3 3 2 2 2 2 2 2 1 1 1 1 1 1 1 0 0 0 0 0 0 0 0 0 0 0 0 0 0 0 0 0 0 0 0 0 0
1 1 2 2 2 2 3 3 2 2 2 2 2 2 1 1 1 1 1 1 1 0 0 0 0 0 0 0 0 0 0 0 0 0 0 0 0 0 0 0 0 0 0
1 1 1 1 2 2 3 3 2 2 1 2 2 2 1 1 1 1 0 0 0 0 0 0 0 0 0 0 0 0 0 0 0 0 0 0 0 0 0 0 0 0 0
1 1 1 1 2 2 3 3 2 1 1 2 2 2 1 1 1 0 0 0 1 1 0 0 0 0 0 0 0 0 0 0 0 0 0 0 0 0 0 0 0 0 0
1 1 1 1 2 2 2 2 2 2 1 2 1 1 1 1 1 1 1 0 0 0 0 0 0 0 0 0 0 0 0 0 0 0 0 0 0 0 0 0 0 0 0
2 2 2 2 2 2 2 2 2 2 2 2 1 1 1 1 1 1 1 1 0 0 0 0 0 0 0 0 0 0 0 0 0 0 0 0 0 0 0 0 0 0 0
2 2 2 2 2 2 2 3 3 3 3 2 2 1 1 1 1 1 1 1 1 0 0 0 0 0 0 0 0 0 0 0 0 0 0 0 0 0 0 0 0 0 0
1 1 1 1 2 2 2 2 3 3 3 2 2 1 1 1 1 1 1 0 0 0 0 0 0 0 0 0 0 0 0 0 0 0 0 0 0 0 0 0 0 0 0
1 1 1 1 1 1 1 1 1 2 2 2 1 1 1 0 0 0 0 0 0 0 0 0 0 0 0 0 0 0 0 0 0 0 0 0 0 0 0 0 0 0 0
1 1 1 1 1 1 1 1 1 1 1 1 1 1 0 0 0 0 0 0 0 0 0 0 0 0 0 0 0 0 0 0 0 0 0 0 0 0 0 0 0 0 0
1 1 1 1 1 1 1 0 0 0 0 0 0 0 0 0 0 0 0 0 0 0 0 0 0 0 0 0 0 0 0 0 0 0 0 0 0 0 0 0 0 0 0
Wind_Speed
8 7 7 7 7 7 7 7 7 7 6 5 4 4 4 3 2 2 2 1 1 1 1 2 1 2 2 3 4 3 2 2 2 2 2 2 2 1 1 1 1 1 1
8 7 7 8 8 7 7 7 7 7 6 5 3 2 2 2 2 2 2 1 1 1 1 2 2 2 2 2 3 3 3 2 2 3 3 2 2 2 1 1 1 1 1
9 8 8 8 8 7 7 6 6 7 6 6 4 4 3 3 3 2 2 1 1 2 2 2 3 3 3 3 3 4 4 3 2 2 3 3 2 2 1 1 0 1 1
8 8 8 7 7 7 6 6 6 6 6 6 5 5 3 3 2 2 2 2 1 1 1 2 2 3 3 3 3 3 4 4 3 2 2 3 3 3 2 2 1 1 1
8 8 8 7 7 7 6 6 6 6 6 5 5 5 3 3 2 2 2 1 1 1 1 1 1 2 3 3 3 3 4 4 4 4 3 3 3 4 4 3 2 2 2
7 7 7 7 7 7 7 7 6 6 5 5 5 4 4 3 3 2 2 1 1 0 1 1 1 2 2 3 3 3 4 4 4 4 4 4 3 3 4 4 4 3 2
7 7 7 8 8 8 7 7 7 6 5 5 4 4 4 4 4 2 2 0 0 0 1 1 1 2 3 3 3 3 4 4 4 4 4 4 4 4 4 4 4 4 2
7 7 7 7 7 8 7 7 7 7 6 5 4 4 3 2 2 2 0 0 1 2 1 1 1 2 3 3 3 3 3 3 4 4 4 4 3 3 3 3 3 4 3
6 7 7 7 7 7 7 7 7 7 6 5 5 4 4 2 2 2 1 1 1 1 1 1 1 2 2 3 3 3 3 3 3 4 3 4 3 3 3 3 4 4 4
6 7 6 6 6 7 7 6 6 7 7 6 5 4 4 3 2 2 2 1 0 0 0 1 1 2 2 2 3 3 3 3 3 3 3 3 3 3 3 3 3 4 4
6 6 6 6 7 7 7 7 6 6 6 5 5 4 4 3 3 2 2 1 0 0 1 1 2 2 2 3 3 3 3 3 3 3 3 3 3 3 3 3 3 3 3
6 7 7 7 7 7 7 6 6 6 6 5 5 4 4 4 3 3 2 1 0 1 1 2 2 2 2 3 3 3 3 3 3 3 4 4 3 3 3 3 2 2 3
7 7 7 7 6 6 6 6 6 5 5 5 5 5 4 3 3 2 1 1 0 1 1 1 2 2 3 3 3 3 3 3 3 3 4 4 4 4 3 3 2 2 2
7 7 7 6 6 6 6 6 5 5 5 5 5 4 3 3 2 2 1 0 1 1 2 2 2 2 3 3 3 3 3 3 3 3 3 4 4 4 4 3 2 2 3
7 7 7 6 6 6 6 6 6 5 5 5 4 4 3 3 2 1 1 1 1 1 1 2 2 2 2 2 4 4 3 3 3 3 3 3 3 5 5 4 3 3 2
8 7 7 7 7 6 6 6 5 5 5 4 4 3 3 3 2 2 1 1 1 1 2 2 2 2 3 4 4 5 4 3 3 3 3 3 2 2 3 4 5 5 4
7 7 7 7 7 7 6 6 5 5 4 4 4 3 3 3 2 2 1 1 1 1 2 2 2 2 3 2 3 4 4 3 3 3 4 4 3 4 3 3 5 5 6
7 7 7 7 7 7 6 6 6 5 5 5 4 4 3 3 2 1 1 1 1 1 2 2 2 2 2 2 3 5 4 3 3 3 3 4 5 5 5 5 4 4 3
5 6 6 7 7 7 7 7 6 5 5 5 5 4 3 3 2 1 1 1 2 2 2 1 2 2 1 1 3 6 3 2 3 3 3 4 4 4 6 5 5 4 3
5 6 7 7 8 7 7 7 6 6 5 5 4 4 3 3 2 1 1 1 2 2 3 2 2 2 2 1 3 6 4 3 3 2 2 0 3 4 6 5 4 4 3
6 6 7 7 7 7 8 7 7 6 5 5 4 3 3 2 2 1 1 2 2 2 2 2 2 2 2 2 3 4 4 4 4 3 2 1 1 4 5 5 5 5 5
7 6 6 6 7 8 8 8 7 5 5 4 4 3 3 2 2 1 2 2 2 2 2 2 3 2 2 2 2 3 4 6 5 4 4 3 3 5 6 5 4 6 6
6 6 7 7 7 7 8 7 6 5 5 4 4 3 3 2 2 2 2 2 3 3 2 2 2 2 2 1 4 5 5 6 5 4 5 6 7 7 6 7 7 6 5
7 6 7 7 7 7 7 6 6 5 5 4 4 3 3 3 2 2 2 2 2 2 2 3 3 3 2 2 1 2 3 5 6 5 5 8 10 8 7 6 6 5 4
6 6 5 6 7 7 6 6 6 6 5 4 4 3 3 2 2 2 2 3 2 3 4 4 4 4 4 4 5 6 5 5 5 6 6 5 4 4 4 4 3 3 4
6 6 6 6 6 6 6 6 5 5 5 4 3 3 2 2 2 1 1 1 3 3 5 6 7 4 4 6 6 7 7 8 7 6 5 5 5 5 4 4 4 4 4
Wind_Direction
173 167 164 163 163 168 169 169 170 166 168 165 170 166 162 158 144 127 105 93 55 30 327 334 342 329 339 332 326 310 296 303 311 284 278 245 219 226 256 280 305 331 333
173 173 173 170 172 174 174 175 176 174 178 169 169 162 152 150 126 104 96 85 68 4 357 353 327 346 324 329 331 321 309 322 320 304 289 262 209 191 197 256 264 330 324
187 182 182 182 175 176 179 177 174 175 175 167 157 143 144 154 146 139 128 89 69 50 18 357 343 337 324 348 331 328 323 318 314 327 310 302 306 315 205 229 278 302 310
187 186 184 183 182 181 176 172 172 173 169 168 164 167 173 163 150 159 125 117 100 61 26 359 349 336 339 340 318 347 317 305 302 297 287 295 308 290 278 233 239 265 288
187 188 184 180 178 177 170 165 164 164 165 167 167 177 177 159 149 140 131 156 114 98 36 1 344 327 328 343 333 321 308 301 301 301 290 281 270 267 280 277 270 272 283
184 181 175 172 173 166 163 157 152 157 162 166 167 169 162 154 158 165 151 188 157 157 67 339 346 325 338 334 324 317 307 310 311 302 299 293 290 284 279 284 277 275 271
174 171 172 174 169 160 154 151 150 148 151 153 154 154 153 160 170 181 156 228 309 27 29 347 337 335 334 327 326 317 323 318 309 295 294 288 280 283 283 278 280 283 271
166 170 173 169 164 158 154 153 149 145 148 144 137 134 146 162 150 140 131 59 7 24 358 326 334 333 328 331 331 316 326 322 306 301 301 287 285 279 279 283 283 280 271
164 162 161 157 156 154 155 153 149 146 146 142 140 136 142 146 133 142 166 96 47 48 353 329 332 336 333 332 321 334 330 323 312 307 300 296 296 283 277 273 272 277 279
161 158 155 152 149 148 149 151 151 150 149 150 150 143 150 150 142 149 122 92 101 82 306 329 328 320 319 322 317 325 340 327 327 318 313 307 307 303 282 272 275 272 274
159 155 151 144 141 144 148 147 148 150 149 148 148 151 149 144 148 150 146 136 119 24 337 340 316 318 320 324 322 325 322 324 332 327 324 317 310 302 297 284 272 273 277
154 151 147 141 143 148 150 150 154 154 152 151 153 153 149 150 155 141 131 128 100 333 337 320 310 319 330 330 323 320 326 327 329 333 332 330 323 307 296 290 285 283 282
151 150 150 147 149 152 154 155 153 152 154 157 157 154 160 159 152 136 130 129 128 313 316 296 298 316 320 320 315 322 327 330 335 338 332 330 326 317 315 299 297 282 272
158 159 158 154 153 156 156 154 148 151 159 159 158 156 160 158 155 149 156 204 266 285 300 304 311 310 313 319 320 323 327 328 332 332 327 326 325 324 315 304 298 297 285
166 169 168 160 159 161 160 158 152 154 161 160 156 151 150 149 147 161 198 239 265 283 300 306 311 316 309 333 330 317 309 311 318 322 324 334 337 335 320 318 319 301 290
173 174 173 167 166 166 163 160 155 155 160 161 156 151 153 150 153 181 220 255 281 302 314 324 324 330 357 24 347 307 299 299 307 315 318 306 278 300 271 283 296 300 290
171 174 175 173 170 168 166 163 159 158 159 156 152 150 152 154 171 185 192 243 279 311 324 331 332 350 20 15 334 307 289 294 310 313 311 317 343 308 313 270 236 243 242
172 173 173 170 169 164 163 160 159 163 164 162 163 162 164 164 173 192 204 248 266 286 304 318 327 338 24 13 322 304 279 298 309 311 312 315 318 334 321 303 293 276 241
166 165 165 164 162 163 162 163 164 169 174 170 167 166 166 165 177 200 247 260 268 284 291 309 318 325 357 346 301 293 292 293 300 304 314 312 319 347 319 291 288 285 271
150 154 159 159 160 164 166 168 171 177 179 173 169 167 171 180 196 216 246 264 270 275 288 315 312 309 313 305 285 290 287 305 305 300 288 306 319 323 314 295 295 295 298
148 152 157 160 164 168 169 173 179 184 180 174 174 176 184 190 201 220 246 255 258 275 293 303 298 291 291 244 253 286 294 307 305 310 313 11 358 294 296 288 288 292 296
149 153 157 160 163 169 174 177 180 178 173 172 177 180 190 209 200 220 251 259 262 257 262 276 287 283 266 272 247 254 272 294 296 303 316 345 327 302 292 281 282 279 274
145 151 152 153 157 167 174 173 169 170 168 171 179 186 196 208 223 236 246 253 248 261 281 292 303 312 312 210 214 235 249 260 272 297 310 293 284 282 268 247 256 261 255
146 151 153 154 156 164 168 165 163 168 170 176 182 188 199 208 211 244 252 268 281 283 287 300 310 316 312 314 308 276 252 242 248 271 266 247 250 249 258 261 242 245 265
145 149 153 153 154 156 160 164 164 167 172 179 188 196 199 201 231 252 297 294 314 319 300 308 312 310 310 345 348 320 312 315 324 312 284 274 270 269 267 264 259 253 243
144 146 151 151 151 156 161 163 164 169 174 179 190 200 201 208 231 229 227 251 258 250 250 259 274 289 283 288 293 292 289 287 291 285 276 282 284 287 288 288 280 266 259